Volver al catálogo

FOSSASAT2E25

ActivoCienciaSSO
NORAD 68478·PAYLOAD·🇪🇸 Spain

Lanzado Mar 30, 2026 desde Vandenberg Space Force Base

Loading…

Próximos Pases (próximas 24 horas)

TLE

ActualizadoSource: Space-Track

Época: Sep 14, 2026, 14:50 UTC

1 68478U 26067BQ  26257.61814490  .00000721  00000-0  76161-4 0  9994
2 68478  97.7693 214.6258 0002336  31.0340 329.1017 14.92264500 25068

Sigue FOSSASAT2E25 en tiempo real con AllMySat

Download on the App Store